sat.trackr.live / text

‹ back to catalog

STARLINK-6071

NORAD 56132 · 2023-046AS

PAYLOAD ACTIVE UNKNOWN

§ Identity

Operator
Country
US
Launch date
2023-03-29
Launch site
AFETR
Launch vehicle
Mass (kg)
RCS (m²)

Purposes: comms

External: N2YO · Heavens-Above · Gunter

§ Orbital elements

Epoch: 2026-09-20T08:13:36.505632Z

Period
94.27 min
Inclination
43.0026°
Eccentricity
0.0001328
Mean motion
15.27570895 rev/d
Perigee alt
482.2 km
Apogee alt
484.0 km
Semi-major
6,861.2 km
B*
1.2766e-7
RAAN
127.3651°
Arg perigee
267.2821°
Mean anomaly
92.7879°
Rev number
19,197

§ Raw data

STARLINK-60711 56132U 23046AS  26263.34278363 -.00000259  00000+0  12766-6 0  99912 56132  43.0026 127.3651 0001328 267.2821  92.7879 15.27570895191979

JSON: /api/v1/satellites/56132 · /tle

For live sub-satellite position, see the globe view (requires WebGL).

§ Visibility from observer

Set your observer location to see the next 7 days of passes ≥ 10°. The values pass through the URL so the page stays shareable.

No JS? Fill the form by hand. The geolocation button needs JavaScript.